JA3VQW-13 Hirakata JP current weather conditions

sailwx.info

Wind from 270

Air temperature 11.1° C
Dewpoint 3.9° C

Last reported at 2014-Nov-22 16:30 UTC.
Time now 2014-Nov-22 17:56 UTC

Location: N 34°48' E 135°40'.
View on Google Maps.

See reports from other nearby stations

  
Tides and Currents Weather Stations Pressure Air Temp Water Temp Dewpoint Dewpoint Depression Visibility Wind Speed Wind Dir Waves Ship Positions
date/time (UTC)wind fromknots sea level pressurealtimeterstation pressurevisibilityair tempwater tempwave heightnotes
2014-Nov-22 16:30 270 11.1
2014-Nov-22 16:00 270 11.7
2014-Nov-22 15:30 270 11.7
2014-Nov-22 15:00 270 11.7
2014-Nov-22 14:30 270 12.8
2014-Nov-22 14:00 270 12.8
2014-Nov-22 13:30 270 13.3
2014-Nov-22 13:00 270 13.9
2014-Nov-22 12:30 270 13.9
2014-Nov-22 11:57 270 14.4
2014-Nov-22 11:27 270 14.4
2014-Nov-22 10:57 270 14.4
2014-Nov-22 10:27 270 15.0
2014-Nov-22 10:12 270 15.6
2014-Nov-22 09:42 270 16.7
2014-Nov-22 09:12 270 17.2
2014-Nov-22 08:53 270 17.8
2014-Nov-22 08:23 270 18.3
2014-Nov-22 07:53 270 20.0
2014-Nov-22 07:23 270 21.1
2014-Nov-22 06:53 270 24.4
2014-Nov-22 06:23 250 26.7
2014-Nov-22 05:53 180 26.1
2014-Nov-22 05:23 135 26.1
2014-Nov-22 04:54 292 26.7
2014-Nov-22 04:24 292 26.7
2014-Nov-22 03:54 292 25.0
2014-Nov-22 03:24 292 24.4
2014-Nov-22 02:54 292 23.9
2014-Nov-22 02:24 292 22.2
2014-Nov-22 01:54 270 21.1
2014-Nov-22 01:24 270 18.9
2014-Nov-22 00:54 135 17.2
2014-Nov-22 00:24 225 15.6
2014-Nov-21 23:54 202 12.8
2014-Nov-21 23:24 270 11.7
2014-Nov-21 22:54 158 11.1
2014-Nov-21 22:25 270 10.6
2014-Nov-21 21:55 270 10.0
2014-Nov-21 21:29 270 10.6
2014-Nov-21 20:55 270 10.0
2014-Nov-21 20:45 270 10.0
2014-Nov-21 20:30 270 10.0
2014-Nov-21 20:25 270 10.0
2014-Nov-21 19:59 270 10.0
2014-Nov-21 19:55 270 10.0
2014-Nov-21 19:45 270 10.0
2014-Nov-21 19:29 270 10.0
2014-Nov-21 19:25 270 10.0
2014-Nov-21 19:01 270 10.0
2014-Nov-21 18:55 270 10.0
2014-Nov-21 18:45 270 10.0
2014-Nov-21 18:29 270 10.0
2014-Nov-21 17:55 270 9.4
2014-Nov-21 17:25 270 8.9
2014-Nov-21 17:01 135 8.9
2014-Nov-21 16:55 135 8.9
2014-Nov-21 16:29 135 8.9
2014-Nov-21 15:59 135 9.4
2014-Nov-21 15:55 135 9.4
2014-Nov-21 15:29 135 10.0
2014-Nov-21 14:55 135 10.6
2014-Nov-21 14:25 135 10.6
2014-Nov-21 13:55 248 10.6
2014-Nov-21 13:25 248 11.1
2014-Nov-21 12:55 248 11.7
2014-Nov-21 12:27 248 11.7
2014-Nov-21 11:57 248 12.2
2014-Nov-21 11:27 248 12.8
2014-Nov-21 10:57 248 12.8
2014-Nov-21 10:27 248 12.8
2014-Nov-21 10:14 248 12.8
2014-Nov-21 09:57 248 13.3
2014-Nov-21 09:49 248 13.3
2014-Nov-21 09:19 248 13.9
2014-Nov-21 08:49 248 14.4
2014-Nov-21 08:19 248 15.6
2014-Nov-21 07:49 248 17.8
2014-Nov-21 07:28 248 18.9
2014-Nov-21 07:16 248 20.6
2014-Nov-21 06:46 248 22.2
2014-Nov-21 06:16 248 22.2
2014-Nov-21 05:46 248 23.3
2014-Nov-21 05:16 248 22.8
2014-Nov-21 04:46 248 21.7
2014-Nov-21 04:16 248 21.7
2014-Nov-21 03:46 248 21.7
2014-Nov-21 03:16 248 20.6
2014-Nov-21 02:46 248 20.6
2014-Nov-21 02:16 248 18.3
2014-Nov-21 01:46 248 17.8
2014-Nov-21 01:16 248 16.1
2014-Nov-21 00:46 248 15.0
2014-Nov-21 00:28 248 13.9
2014-Nov-20 23:58 248 10.6
2014-Nov-20 23:39 248 7.8
2014-Nov-20 23:09 248 7.2
2014-Nov-20 22:57 248 7.2
2014-Nov-20 22:29 248 5.6
2014-Nov-20 21:57 248 5.0
2014-Nov-20 21:27 248 5.0
2014-Nov-20 20:57 248 5.0
2014-Nov-20 20:27 248 5.0
2014-Nov-20 19:57 248 5.6
2014-Nov-20 19:27 248 5.6
2014-Nov-20 18:56 248 5.6
2014-Nov-20 18:26 248 5.6
2014-Nov-20 17:56 248 6.1
2014-Nov-20 17:26 248 6.1